Weather History for Rockford, IL

Change the Weather History Date:

Monday, December 2, 2013

  Actual Average Record
Temperature  
Mean Temperature 34 °F 30 °F  
Max Temperature 42 °F 38 °F 64 °F (1982)
Min Temperature 25 °F 23 °F -4 °F (1976)
Degree Days  
Heating Degree Days 31 35  
Month to date heating degree days 62 69  
Since 1 July heating degree days 1445 1404  
Cooling Degree Days 0 0  
Month to date cooling degree days 0 0  
Year to date cooling degree days 890 820  
Moisture  
Dew Point 29 °F    
Average Humidity 77    
Maximum Humidity 96    
Minimum Humidity 57    
Precipitation  
Precipitation 0.04 in 0.08 in 2.00 in (1982)
Month to date precipitation 0.04 0.16  
Year to date precipitation 38.92 34.42  
Snow  
Snow T in 0.30 in 7.00 in (1991)
Month to date snowfall T 0.6  
Since 1 July snowfall 1.0 2.4  
Snow Depth 0.00 in    
Sea Level Pressure  
Sea Level Pressure 29.85 in    
Wind  
Wind Speed 6 mph (ESE)    
Max Wind Speed 14 mph    
Max Gust Speed 18 mph    
Visibility 6 miles    
Events Rain , Snow    
T = Trace of Precipitation, MM = Missing Value Source: NWS Daily Summary

Daily Weather History Graph

Daily Weather History Graph

Search for Another Location

Airport:

Trip Planner

Search our weather history database for the weather conditions in past years. The results will help you decide how hot, cold, wet, or windy it might be!

Date:

Astronomy

Dec. 02, 2013 Rise Set
Actual Time 7:06 AM CST 4:24 PM CST
Civil Twilight 6:35 AM CST 4:56 PM CST
Nautical Twilight 6:00 AM CST 5:31 PM CST
Astronomical Twilight 5:26 AM CST 6:04 PM CST
Moon 6:30 AM CST (12/2) 4:28 PM CST (12/2)
Length of Visible Light 10h 20m
Length of Day
9h 18m
Waning Crescent, 0% of the Moon is Illuminated
Dec 2
Waning Crescent
Dec 2
New
Dec 9
First Quarter
Dec 17
Full
Dec 25
Last Quarter

Hourly Weather History & Observations

Time (CST) Temp. Windchill Dew Point Humidity Pressure Visibility Wind Dir Wind Speed Gust Speed Precip Events Conditions
12:54 AM 30.9 °F 26.2 °F 27.0 °F 85% 29.99 in 6.0 mi SSE 4.6 mph - N/A   Overcast
1:54 AM 32.0 °F - 26.1 °F 79% 29.98 in 5.0 mi Calm Calm - N/A   Haze
2:54 AM 28.0 °F 24.2 °F 25.0 °F 88% 29.97 in 5.0 mi ENE 3.5 mph - N/A   Clear
3:54 AM 27.0 °F - 23.0 °F 85% 29.96 in 4.0 mi Calm Calm - N/A   Clear
4:54 AM 28.0 °F - 25.0 °F 88% 29.95 in 3.0 mi Calm Calm - N/A   Partly Cloudy
5:54 AM 27.0 °F - 25.0 °F 92% 29.94 in 3.0 mi Calm Calm - N/A   Clear
6:54 AM 30.0 °F 22.4 °F 27.0 °F 88% 29.93 in 3.0 mi East 8.1 mph - N/A   Mostly Cloudy
7:54 AM 30.0 °F - 27.0 °F 88% 29.94 in 3.0 mi Calm Calm - N/A   Overcast
8:54 AM 34.0 °F 29.8 °F 32.0 °F 92% 29.93 in 5.0 mi SE 4.6 mph - N/A   Overcast
9:54 AM 37.9 °F 33.5 °F 33.1 °F 83% 29.91 in 6.0 mi SE 5.8 mph - N/A   Haze
10:54 AM 39.9 °F 33.9 °F 30.9 °F 70% 29.88 in 7.0 mi SE 9.2 mph - N/A   Overcast
11:54 AM 42.1 °F 36.1 °F 28.9 °F 60% 29.86 in 8.0 mi SE 10.4 mph - N/A   Overcast
12:54 PM 42.1 °F 36.1 °F 28.9 °F 60% 29.84 in 8.0 mi ESE 10.4 mph - N/A   Overcast
1:54 PM 42.1 °F 36.6 °F 28.0 °F 58% 29.82 in 8.0 mi SE 9.2 mph - N/A   Overcast
2:54 PM 42.1 °F 36.1 °F 27.0 °F 55% 29.81 in 9.0 mi SE 10.4 mph - 0.00 in Rain Light Rain
3:54 PM 41.0 °F 35.2 °F 28.0 °F 60% 29.80 in 10.0 mi ESE 9.2 mph - 0.00 in   Overcast
4:54 PM 39.9 °F 33.9 °F 27.0 °F 60% 29.79 in 8.0 mi SE 9.2 mph - N/A   Overcast
5:54 PM 39.0 °F 33.4 °F 27.0 °F 62% 29.79 in 9.0 mi ESE 8.1 mph - 0.00 in Rain Light Rain
6:34 PM 37.4 °F 30.8 °F 28.4 °F 70% 29.77 in 7.0 mi ESE 9.2 mph - 0.00 in Snow Light Snow
6:54 PM 36.0 °F 29.0 °F 30.9 °F 82% 29.79 in 6.0 mi ESE 9.2 mph - 0.01 in Snow Light Snow
7:54 PM 35.1 °F 27.9 °F 30.9 °F 85% 29.78 in 6.0 mi ESE 9.2 mph - 0.02 in Rain Light Rain
8:54 PM 35.1 °F 27.9 °F 32.0 °F 89% 29.78 in 7.0 mi East 9.2 mph - 0.01 in Rain Light Rain
9:34 PM 35.6 °F 30.7 °F 32.0 °F 87% 29.76 in 7.0 mi ESE 5.8 mph - 0.00 in   Overcast
9:54 PM 36.0 °F 31.1 °F 32.0 °F 86% 29.78 in 7.0 mi ESE 5.8 mph - 0.00 in   Overcast
10:31 PM 35.6 °F 29.2 °F 33.8 °F 93% 29.76 in 5.0 mi ESE 8.1 mph - N/A   Overcast
10:54 PM 35.1 °F 28.6 °F 34.0 °F 96% 29.78 in 2.0 mi ESE 8.1 mph - 0.00 in   Light Drizzle
11:06 PM 35.6 °F 29.9 °F 33.8 °F 93% 29.75 in 2.0 mi East 6.9 mph - 0.00 in   Light Drizzle
11:54 PM 36.0 °F 29.0 °F 34.0 °F 93% 29.75 in 2.5 mi ESE 9.2 mph - 0.00 in   Overcast